Location: Unspecified
(51.5147°N, 7.4673°E)
Time: 09:00:48
(UTC+01:00)

Explorer 7 - Pass Details

Date: 18 February 2026
Orbit: 430 x 541 km, 50.2° (Epoch: 11 March)

Event Time Altitude Azimuth Distance (km) Brightness Sun altitude
Rises 17:28:44 0° 257° (WSW) 2,460 12.7 2.4°
Reaches altitude 10° 17:30:50 10° 254° (WSW) 1,606 11.6 2.1°
Maximum altitude 17:34:26 69° 171° (S) 512 6.8 1.5°
Drops below altitude 10° 17:38:12 10° 89° (E) 1,676 8.7 1.0°
Sets 17:40:26 0° 87° (E) 2,580 9.6 0.7°
